Tracking 35275 objects as of 8-Sep-2026
HD Live streaming from Space Station
objects crossing your sky now

RASSVET-3 1

Track RASSVET-3 1 now!
10-day predictions


NORAD ID: 68360
Int'l Code: 2026-061A
Launch date: March 23, 2026
Source: Commonwealth of Independent States (former USSR) (CIS)
Launch site: PLESETSK MISSILE AND SPACE COMPLEX (PKMTR)
Your satellite tracking list
Your tracking list is empty




NASA's NSSDC Master Catalog

Two Line Element Set (TLE):
1 68360U 26061A   26250.58813207  .00002270  00000-0  10915-3 0  9997
2 68360  82.2893 288.0394 0002238  80.7033 279.4453 15.18336816 26078
Source of the keplerian elements: AFSPC